EZY425 EGKK-EIDW

Flight info

Callsign EZY425
Flight time N/A
Altitude 34000
Route NOVMA L620 NIBDA N14 OKSAW DCT BIBPE DCT OKTAD DCT MEDOG DCT KRAGY DCT PEMOB M17 VATRY VATRY4L
Aircraft A320/M-SDE3FGHIRWY/LB1

Departure

Time N/A
Airport London Gatwick Airport (EGKK)

Arrival

Time 2026-05-03 21:11
Airport Dublin Airport (EIDW)
Time Latitude Longitude Altitude Speed Heading
2026-05-03 20:15 51.70058 -1.68567 28148 ft 439 kts 283°
2026-05-03 20:15 51.70771 -1.73341 28438 ft 437 kts 275°
2026-05-03 20:15 51.71139 -1.78201 28726 ft 437 kts 272°
2026-05-03 20:15 51.71487 -1.83093 29016 ft 440 kts 273°
2026-05-03 20:16 51.72044 -1.87993 29287 ft 445 kts 279°
2026-05-03 20:16 51.72766 -1.92813 29558 ft 448 kts 279°
2026-05-03 20:16 51.73496 -1.97709 29829 ft 450 kts 279°
2026-05-03 20:16 51.74225 -2.02627 30086 ft 452 kts 279°
2026-05-03 20:17 51.74958 -2.07588 30306 ft 454 kts 279°
2026-05-03 20:17 51.75690 -2.12550 30589 ft 454 kts 279°
2026-05-03 20:17 51.76411 -2.17443 30925 ft 453 kts 279°
2026-05-03 20:17 51.77136 -2.22390 31245 ft 452 kts 279°
2026-05-03 20:18 51.77861 -2.27357 31575 ft 452 kts 279°
2026-05-03 20:18 51.78581 -2.32316 31875 ft 452 kts 279°
2026-05-03 20:18 51.79297 -2.37256 32178 ft 451 kts 279°
2026-05-03 20:18 51.80003 -2.42131 32488 ft 451 kts 279°
2026-05-03 20:19 51.80715 -2.47068 32801 ft 450 kts 279°
2026-05-03 20:19 51.81423 -2.52006 33122 ft 450 kts 279°
2026-05-03 20:19 51.82126 -2.56935 33444 ft 449 kts 279°
2026-05-03 20:19 51.82812 -2.61859 33771 ft 449 kts 279°
2026-05-03 20:20 51.83482 -2.66790 33918 ft 448 kts 279°
2026-05-03 20:20 51.84797 -2.76622 33940 ft 445 kts 279°
2026-05-03 20:21 51.86093 -2.86366 33942 ft 445 kts 279°
2026-05-03 20:21 51.87397 -2.96199 33940 ft 445 kts 279°
2026-05-03 20:22 51.88693 -3.05966 33945 ft 446 kts 279°
2026-05-03 20:22 51.89992 -3.15803 33941 ft 446 kts 279°
2026-05-03 20:23 51.91273 -3.25631 33936 ft 446 kts 279°
2026-05-03 20:23 51.92535 -3.35398 33927 ft 446 kts 279°
2026-05-03 20:24 51.93806 -3.45260 33927 ft 446 kts 279°
2026-05-03 20:24 51.95064 -3.55114 33926 ft 446 kts 279°
2026-05-03 20:25 51.96311 -3.64931 33928 ft 447 kts 279°
2026-05-03 20:25 51.97559 -3.74834 33928 ft 447 kts 279°
2026-05-03 20:26 51.98790 -3.84697 33926 ft 447 kts 279°
2026-05-03 20:26 52.00011 -3.94543 33923 ft 447 kts 279°
2026-05-03 20:27 52.01242 -4.04489 33924 ft 447 kts 279°
2026-05-03 20:27 52.02449 -4.14348 33923 ft 448 kts 279°
2026-05-03 20:28 52.03654 -4.24287 33924 ft 447 kts 279°
2026-05-03 20:28 52.04855 -4.34228 33922 ft 448 kts 279°
2026-05-03 20:29 52.06045 -4.44165 33928 ft 448 kts 279°
2026-05-03 20:29 52.07213 -4.54056 33927 ft 448 kts 279°
2026-05-03 20:30 52.08386 -4.64027 33929 ft 448 kts 279°
2026-05-03 20:30 52.09558 -4.73996 33930 ft 448 kts 279°
2026-05-03 20:31 52.10714 -4.83901 33928 ft 449 kts 279°
2026-05-03 20:31 52.11858 -4.93898 33931 ft 449 kts 279°
2026-05-03 20:32 52.13021 -5.03883 33930 ft 449 kts 282°
2026-05-03 20:32 52.13984 -5.08716 33414 ft 449 kts 292°
2026-05-03 20:32 52.15477 -5.13129 32602 ft 452 kts 304°
2026-05-03 20:32 52.17521 -5.17100 31871 ft 452 kts 315°
2026-05-03 20:33 52.19939 -5.20347 31294 ft 450 kts 326°
2026-05-03 20:33 52.22602 -5.22831 30737 ft 446 kts 333°
2026-05-03 20:33 52.25373 -5.25101 30201 ft 443 kts 333°
2026-05-03 20:33 52.28121 -5.27362 29617 ft 440 kts 333°
2026-05-03 20:34 52.30840 -5.29606 29041 ft 436 kts 333°
2026-05-03 20:34 52.33531 -5.31829 28464 ft 431 kts 333°
2026-05-03 20:34 52.36209 -5.34041 27920 ft 427 kts 334°
2026-05-03 20:34 52.38848 -5.36223 27388 ft 423 kts 334°
2026-05-03 20:35 52.41463 -5.38386 26866 ft 419 kts 334°
2026-05-03 20:35 52.44049 -5.40525 26331 ft 412 kts 334°
2026-05-03 20:35 52.46597 -5.42635 25726 ft 409 kts 335°
2026-05-03 20:35 52.49130 -5.44738 25254 ft 404 kts 335°
2026-05-03 20:36 52.51628 -5.46813 24778 ft 400 kts 335°
2026-05-03 20:36 52.54099 -5.48869 24296 ft 396 kts 335°
2026-05-03 20:36 52.56587 -5.50585 23827 ft 390 kts 344°
2026-05-03 20:36 52.59167 -5.51904 23345 ft 386 kts 345°
2026-05-03 20:37 52.61713 -5.53206 22802 ft 383 kts 345°
2026-05-03 20:37 52.64254 -5.54513 22267 ft 380 kts 345°
2026-05-03 20:37 52.66771 -5.55807 21755 ft 377 kts 345°
2026-05-03 20:37 52.69270 -5.57092 21256 ft 375 kts 345°
2026-05-03 20:38 52.70913 -5.57937 20939 ft 373 kts 345°
2026-05-03 20:38 52.73419 -5.59227 20453 ft 371 kts 344°
2026-05-03 20:38 52.75845 -5.60480 19994 ft 368 kts 345°
2026-05-03 20:38 52.78289 -5.61744 19544 ft 366 kts 344°
2026-05-03 20:39 52.80715 -5.62997 19096 ft 364 kts 345°
2026-05-03 20:39 52.83122 -5.64242 18655 ft 362 kts 344°
2026-05-03 20:39 52.85517 -5.65484 18225 ft 360 kts 344°
2026-05-03 20:39 52.87903 -5.66725 17752 ft 358 kts 344°
2026-05-03 20:40 52.90272 -5.67959 17290 ft 355 kts 344°
2026-05-03 20:40 52.92595 -5.69172 16851 ft 353 kts 344°
2026-05-03 20:40 52.94932 -5.70393 16413 ft 351 kts 344°
2026-05-03 20:40 52.97254 -5.71603 15988 ft 348 kts 344°
2026-05-03 20:41 52.99568 -5.72808 15567 ft 346 kts 344°
2026-05-03 20:41 53.01857 -5.74004 15144 ft 344 kts 344°
2026-05-03 20:41 53.04133 -5.75191 14746 ft 341 kts 344°
2026-05-03 20:41 53.06395 -5.76372 14349 ft 339 kts 344°
2026-05-03 20:42 53.08619 -5.77537 13960 ft 337 kts 344°
2026-05-03 20:42 53.10814 -5.78921 13549 ft 337 kts 334°
2026-05-03 20:42 53.12760 -5.81084 13115 ft 337 kts 320°
2026-05-03 20:42 53.14342 -5.83945 12690 ft 336 kts 307°
2026-05-03 20:43 53.15478 -5.87345 12263 ft 335 kts 294°
2026-05-03 20:43 53.16390 -5.90867 11850 ft 333 kts 294°
2026-05-03 20:43 53.17306 -5.94395 11456 ft 330 kts 294°
2026-05-03 20:43 53.18220 -5.97913 11055 ft 328 kts 294°
2026-05-03 20:44 53.19124 -6.01391 10661 ft 325 kts 294°
2026-05-03 20:44 53.20013 -6.04813 10282 ft 323 kts 294°
2026-05-03 20:44 53.20898 -6.08225 10026 ft 316 kts 294°
2026-05-03 20:44 53.21756 -6.11543 9890 ft 305 kts 294°
2026-05-03 20:45 53.22583 -6.14749 9766 ft 295 kts 294°
2026-05-03 20:45 53.23384 -6.17858 9526 ft 289 kts 294°
2026-05-03 20:45 53.24176 -6.20928 9178 ft 287 kts 294°
2026-05-03 20:45 53.24962 -6.23984 8820 ft 285 kts 294°
2026-05-03 20:46 53.25739 -6.27017 8452 ft 284 kts 295°
2026-05-03 20:46 53.26503 -6.30008 8103 ft 282 kts 295°
2026-05-03 20:46 53.27272 -6.33019 7770 ft 279 kts 295°
2026-05-03 20:46 53.28022 -6.35954 7639 ft 268 kts 295°
2026-05-03 20:47 53.28524 -6.38886 7512 ft 260 kts 274°
2026-05-03 20:47 53.28265 -6.41812 7342 ft 253 kts 249°
2026-05-03 20:47 53.27296 -6.44231 7062 ft 251 kts 222°
2026-05-03 20:47 53.25939 -6.46075 6725 ft 251 kts 218°
2026-05-03 20:48 53.24565 -6.47885 6394 ft 251 kts 218°
2026-05-03 20:48 53.23211 -6.49664 6082 ft 250 kts 218°
2026-05-03 20:48 53.21981 -6.51704 5781 ft 249 kts 234°
2026-05-03 20:48 53.21152 -6.54213 5467 ft 246 kts 251°
2026-05-03 20:49 53.20556 -6.56893 5177 ft 246 kts 251°
2026-05-03 20:49 53.19955 -6.59561 5026 ft 245 kts 251°
2026-05-03 20:49 53.19350 -6.62231 5032 ft 246 kts 250°
2026-05-03 20:49 53.18767 -6.64886 5025 ft 246 kts 255°
2026-05-03 20:50 53.18511 -6.67690 5029 ft 244 kts 272°
2026-05-03 20:50 53.18704 -6.70478 5033 ft 241 kts 283°
2026-05-03 20:50 53.19013 -6.73232 5025 ft 242 kts 283°
2026-05-03 20:50 53.19317 -6.75991 5024 ft 241 kts 283°
2026-05-03 20:51 53.19620 -6.78746 5020 ft 242 kts 283°
2026-05-03 20:51 53.19969 -6.81444 5018 ft 240 kts 291°
2026-05-03 20:51 53.20689 -6.83925 5022 ft 237 kts 307°
2026-05-03 20:51 53.21737 -6.86036 5020 ft 235 kts 314°
2026-05-03 20:52 53.22823 -6.88091 5021 ft 235 kts 314°
2026-05-03 20:52 53.23923 -6.90108 5021 ft 234 kts 315°
2026-05-03 20:52 53.24995 -6.92101 5020 ft 233 kts 314°
2026-05-03 20:52 53.26055 -6.94147 5020 ft 233 kts 314°
2026-05-03 20:53 53.27196 -6.96038 5010 ft 229 kts 331°
2026-05-03 20:53 53.28671 -6.96850 5018 ft 223 kts
2026-05-03 20:53 53.30172 -6.96354 5019 ft 221 kts 27°
2026-05-03 20:53 53.31346 -6.94725 5018 ft 221 kts 54°
2026-05-03 20:54 53.31910 -6.92342 5020 ft 224 kts 82°
2026-05-03 20:54 53.30826 -6.87580 5029 ft 233 kts 128°
2026-05-03 20:54 53.29751 -6.85546 5027 ft 233 kts 129°
2026-05-03 20:55 53.28671 -6.83531 5030 ft 233 kts 129°
2026-05-03 20:55 53.27587 -6.81514 5030 ft 233 kts 129°
2026-05-03 20:55 53.26470 -6.79550 5023 ft 235 kts 139°
2026-05-03 20:55 53.24972 -6.78460 5024 ft 240 kts 171°
2026-05-03 20:56 53.23326 -6.78812 5025 ft 243 kts 204°
2026-05-03 20:56 53.22023 -6.80536 5019 ft 243 kts 236°
2026-05-03 20:56 53.21432 -6.83139 5029 ft 240 kts 268°
2026-05-03 20:56 53.21716 -6.85830 5020 ft 235 kts 299°
2026-05-03 20:57 53.22679 -6.87986 5030 ft 232 kts 314°
2026-05-03 20:57 53.23755 -6.89995 5030 ft 233 kts 317°
2026-05-03 20:57 53.25066 -6.91443 4962 ft 227 kts 344°
2026-05-03 20:57 53.26604 -6.91711 4649 ft 222 kts 11°
2026-05-03 20:58 53.28006 -6.90745 4337 ft 219 kts 38°
2026-05-03 20:58 53.28996 -6.88838 4086 ft 218 kts 57°
2026-05-03 20:58 53.29828 -6.86706 4012 ft 218 kts 56°
2026-05-03 20:58 53.30667 -6.84565 4024 ft 219 kts 56°
2026-05-03 20:59 53.31493 -6.82461 4031 ft 219 kts 56°
2026-05-03 20:59 53.32328 -6.80332 4026 ft 219 kts 56°
2026-05-03 20:59 53.33165 -6.78197 4030 ft 219 kts 56°
2026-05-03 20:59 53.34004 -6.76057 4030 ft 220 kts 56°
2026-05-03 21:00 53.34844 -6.73909 4030 ft 220 kts 56°
2026-05-03 21:00 53.35430 -6.72554 4022 ft 213 kts 46°
2026-05-03 21:00 53.37049 -6.70992 4020 ft 196 kts 14°
2026-05-03 21:00 53.38339 -6.70574 4045 ft 180 kts 13°
2026-05-03 21:01 53.39516 -6.70198 4018 ft 164 kts 13°
2026-05-03 21:01 53.40583 -6.69855 4020 ft 150 kts 13°
2026-05-03 21:01 53.41577 -6.69535 4047 ft 142 kts 14°
2026-05-03 21:01 53.42524 -6.69229 4036 ft 140 kts 14°
2026-05-03 21:02 53.43477 -6.68919 4030 ft 139 kts 14°
2026-05-03 21:02 53.44414 -6.68540 4022 ft 138 kts 25°
2026-05-03 21:02 53.45186 -6.67601 4028 ft 138 kts 49°
2026-05-03 21:02 53.45648 -6.66187 4035 ft 139 kts 65°
2026-05-03 21:03 53.46223 -6.64905 4035 ft 139 kts 39°
2026-05-03 21:03 53.47105 -6.64290 4029 ft 142 kts
2026-05-03 21:03 53.48079 -6.64568 4029 ft 144 kts 341°
2026-05-03 21:03 53.48866 -6.65638 4029 ft 151 kts 307°
2026-05-03 21:04 53.49121 -6.67368 4022 ft 160 kts 263°
2026-05-03 21:04 53.48581 -6.68983 4023 ft 162 kts 219°
2026-05-03 21:04 53.47559 -6.69669 4028 ft 159 kts 178°
2026-05-03 21:04 53.46534 -6.69206 4023 ft 151 kts 140°
2026-05-03 21:05 53.45897 -6.67923 4026 ft 143 kts 107°
2026-05-03 21:05 53.45735 -6.66314 4029 ft 140 kts 90°
2026-05-03 21:05 53.45652 -6.64687 4031 ft 140 kts 90°
2026-05-03 21:05 53.45569 -6.63062 4034 ft 139 kts 91°
2026-05-03 21:06 53.45485 -6.61439 4035 ft 140 kts 91°
2026-05-03 21:06 53.45401 -6.59811 3947 ft 140 kts 90°
2026-05-03 21:06 53.45318 -6.58203 3811 ft 139 kts 90°
2026-05-03 21:06 53.45234 -6.56592 3648 ft 138 kts 91°
2026-05-03 21:07 53.45150 -6.54981 3471 ft 138 kts 90°
2026-05-03 21:07 53.45066 -6.53377 3286 ft 137 kts 90°
2026-05-03 21:07 53.44982 -6.51780 3107 ft 137 kts 91°
2026-05-03 21:07 53.44899 -6.50192 2919 ft 136 kts 91°
2026-05-03 21:08 53.44816 -6.48612 2733 ft 136 kts 90°
2026-05-03 21:08 53.44734 -6.47057 2549 ft 135 kts 91°
2026-05-03 21:08 53.44651 -6.45484 2372 ft 135 kts 90°
2026-05-03 21:08 53.44567 -6.43912 2180 ft 135 kts 91°
2026-05-03 21:09 53.44484 -6.42352 1999 ft 134 kts 90°
2026-05-03 21:09 53.44401 -6.40798 1814 ft 133 kts 90°
2026-05-03 21:09 53.44319 -6.39264 1639 ft 133 kts 90°
2026-05-03 21:09 53.44238 -6.37701 1456 ft 134 kts 91°
2026-05-03 21:10 53.44155 -6.36135 1249 ft 135 kts 91°
2026-05-03 21:10 53.44060 -6.34564 1060 ft 134 kts 94°
2026-05-03 21:10 53.43976 -6.33007 842 ft 135 kts 91°
2026-05-03 21:10 53.43904 -6.31435 685 ft 134 kts 91°
2026-05-03 21:11 53.43818 -6.29872 473 ft 134 kts 92°
2026-05-03 21:11 53.43727 -6.28319 315 ft 134 kts 92°
2026-05-03 21:11 53.43639 -6.26831 214 ft 119 kts 94°
2026-05-03 21:11 53.43597 -6.25891 211 ft 41 kts 95°
2026-05-03 21:12 53.43572 -6.25460 212 ft 31 kts 98°
2026-05-03 21:12 53.43499 -6.25136 216 ft 27 kts 121°
2026-05-03 21:12 53.43418 -6.24983 211 ft 12 kts 177°
2026-05-03 21:12 53.43380 -6.25071 211 ft 10 kts 273°
2026-05-03 21:13 53.43386 -6.25179 215 ft 9 kts 276°
2026-05-03 21:13 53.43392 -6.25275 211 ft 8 kts 275°
2026-05-03 21:13 53.43397 -6.25369 211 ft 11 kts 275°
2026-05-03 21:13 53.43406 -6.25535 211 ft 14 kts 275°
2026-05-03 21:14 53.43382 -6.25654 211 ft 11 kts 202°
2026-05-03 21:14 53.43287 -6.25595 216 ft 16 kts 157°
2026-05-03 21:14 53.43174 -6.25518 219 ft 18 kts 157°
2026-05-03 21:14 53.43059 -6.25435 212 ft 18 kts 156°
2026-05-03 21:15 53.42948 -6.25347 213 ft 13 kts 139°
2026-05-03 21:15 53.42964 -6.25210 211 ft 13 kts 83°
2026-05-03 21:15 53.42954 -6.25051 218 ft 13 kts 96°
2026-05-03 21:15 53.42999 -6.25011 217 ft 8 kts
2026-05-03 21:16 53.43015 -6.25008 218 ft 0 kts